[[{"header":{"parameterUnit":"m.s-1","parameterCategory":1,"la1":30.2991,"la2":30.254,"lo1":-89.0895,"lo2":-89.0444,"dy":0.0017,"dx":0.0017,"nx":28,"ny":28,"refTime":"2025-01-02T09:00:00:Z","depth":0,"parameterNumber":2,"parameterNumberName":"U-component_of_WINDS"},"data":[0,0,0,0,0,0,0,0,0,0,0,0,0,0,0,0,0,0,0,0,0,0,0,0,0,0,0,0,0,0,0,0,0,0,0,0,0,0,0,0,0,0,0,0,0,0,0,0,0,0,0,0,0,0,0,0,0,0,-0.8825,-0.8824,0,-0.8787,-0.8786,-0.8786,-0.8761,-0.8761,-0.876,-0.876,-0.872,-0.872,-0.8719,0,0,0,0,0,0,0,0,0,0,0,0,0,-0.8874,-0.8874,-0.8825,-0.8824,-0.8824,-0.8787,-0.8786,-0.8786,-0.8761,-0.8761,-0.876,-0.876,-0.8721,-0.872,-0.8719,0,0,0,0,0,0,0,0,0,0,0,0,0,-0.8846,-0.8873,-0.8825,-0.8807,-0.8805,-0.8787,-0.8786,-0.8786,-0.8761,-0.8761,-0.876,-0.876,-0.8721,-0.872,-0.8718,-0.8715,0,0,-0.8714,-0.8714,0,0,0,0,0,0,0,0,-0.8848,-0.8844,-0.881,-0.8808,-0.8806,-0.8778,-0.8789,-0.8762,-0.8761,-0.8777,-0.876,-0.876,-0.874,-0.8737,-0.873,-0.8713,-0.8712,-0.8714,-0.8713,-0.8713,-0.8712,0,0,0,0,0,0,0,-0.885,-0.8846,-0.881,-0.8809,-0.8807,-0.88,-0.8796,-0.8784,-0.876,-0.8776,-0.8774,-0.877,-0.8739,-0.8732,-0.8729,-0.8711,-0.8714,-0.8713,-0.8712,-0.8712,-0.8689,-0.8689,0,0,0,0,0,0,-0.8855,-0.8848,-0.8811,-0.8808,-0.8827,-0.88,-0.8795,-0.8787,-0.8761,-0.8756,-0.877,-0.8769,-0.8734,-0.8731,-0.8728,-0.8721,-0.8713,-0.8712,-0.8711,-0.8689,-0.8689,-0.8689,0,0,0,0,0,0,-0.8856,-0.8852,-0.8812,-0.8828,-0.8822,-0.8799,-0.8791,-0.8787,-0.878,-0.8756,-0.8752,-0.8767,-0.8734,-0.873,-0.8718,-0.872,-0.8711,-0.871,-0.8688,-0.8689,-0.8689,-0.8709,0,0,0,0,0,0,-0.8858,-0.8852,-0.8851,-0.8828,-0.8821,-0.8804,-0.8791,-0.8786,-0.8777,-0.8775,-0.8752,-0.8748,-0.8733,-0.8721,-0.8717,-0.8718,-0.8709,-0.8688,-0.8689,-0.8689,-0.8708,-0.871,-0.8712,0,0,0,0,0,-0.8859,-0.8858,-0.8851,-0.8847,-0.8819,-0.8804,-0.88,-0.8783,-0.8778,-0.8776,-0.8761,-0.8749,-0.8721,-0.872,-0.8715,-0.8716,-0.8688,-0.8688,-0.8689,-0.8708,-0.871,-0.8712,0,0,0,0,0,0,-0.8882,-0.8855,-0.8847,-0.8838,-0.8823,-0.88,-0.8797,-0.8786,-0.8773,-0.8771,-0.8751,-0.8746,-0.8736,-0.8725,-0.8725,-0.8711,-0.8703,-0.8702,-0.8718,-0.872,-0.8722,-0.8725,-0.8708,0,0,0,0,0,-0.8886,-0.8876,-0.8853,-0.8847,-0.884,-0.882,-0.8813,-0.8801,-0.8785,-0.8779,-0.8763,-0.8748,-0.8735,-0.8727,-0.8715,-0.8707,-0.8701,-0.8705,-0.8707,-0.8709,-0.8708,-0.8703,-0.8704,-0.8691,-0.8691,-0.8691,0,0,-0.8893,-0.8877,-0.8872,-0.8851,-0.8839,-0.8829,-0.8815,-0.8805,-0.8797,-0.8777,-0.8765,-0.8753,-0.8735,-0.8726,-0.8721,-0.8716,-0.8711,-0.8709,-0.8711,-0.8709,-0.8704,-0.8705,-0.8706,-0.8691,-0.8691,-0.8691,0,0,-0.8902,-0.889,-0.8883,-0.8871,-0.8853,-0.8839,-0.8838,-0.8816,-0.8807,-0.8795,-0.878,-0.8771,-0.875,-0.8737,-0.8728,-0.8733,-0.8721,-0.8729,-0.8738,-0.8733,-0.8734,-0.8735,-0.8736,-0.8737,-0.8729,-0.8729,-0.8729,0,-0.8914,-0.8899,-0.8881,-0.8872,-0.8863,-0.8845,-0.8838,-0.8827,-0.8806,-0.88,-0.8795,-0.8768,-0.8755,-0.8742,-0.8743,-0.8736,-0.8734,-0.8731,-0.8736,-0.8736,-0.8737,-0.8737,-0.8738,-0.873,-0.873,-0.873,-0.873,0,-0.8914,-0.8903,-0.8901,-0.888,-0.8871,-0.8863,-0.8844,-0.8837,-0.8826,-0.8813,-0.8801,-0.8785,-0.8768,-0.8764,-0.8754,-0.875,-0.8748,-0.874,-0.8731,-0.8739,-0.874,-0.874,-0.8732,-0.8732,-0.8731,-0.8731,0,0,-0.8935,-0.8905,-0.8904,-0.8895,-0.8873,-0.8865,-0.8856,-0.884,-0.8834,-0.882,-0.8812,-0.8795,-0.8787,-0.8777,-0.8765,-0.8761,-0.8765,-0.8753,-0.8752,-0.8755,-0.8759,-0.8765,-0.8765,-0.8758,-0.8758,-0.8758,-0.876,0,-0.894,-0.8923,-0.8908,-0.8897,-0.8887,-0.887,-0.8862,-0.8848,-0.8836,-0.8825,-0.8812,-0.88,-0.8791,-0.8785,-0.878,-0.8765,-0.8765,-0.8765,-0.8749,-0.8749,-0.8753,-0.8766,-0.8771,-0.8775,-0.8761,-0.8761,-0.8761,0,-0.8943,-0.893,-0.8918,-0.8897,-0.8892,-0.8886,-0.887,-0.886,-0.8844,-0.8835,-0.8824,-0.8812,-0.8802,-0.8795,-0.878,-0.8781,-0.8773,-0.8765,-0.8765,-0.8762,-0.8755,-0.8762,-0.8775,-0.8776,-0.8761,-0.8761,-0.8761,0,-0.8958,-0.8938,-0.8928,-0.892,-0.8896,-0.8892,-0.8882,-0.8865,-0.8857,-0.8843,-0.8837,-0.8822,-0.8814,-0.8803,-0.8786,-0.8783,-0.8773,-0.8765,-0.8766,-0.8766,-0.8763,-0.8764,-0.8775,-0.876,-0.876,-0.876,-0.876,0,-0.8965,-0.8958,-0.8934,-0.8928,-0.892,-0.8902,-0.8895,-0.8883,-0.8868,-0.8859,-0.8844,-0.8836,-0.8815,-0.8805,-0.8792,-0.8782,-0.8778,-0.8771,-0.8767,-0.8772,-0.8772,-0.8766,-0.8765,-0.8761,-0.8761,-0.8761,-0.876,0,-0.898,-0.8964,-0.8952,-0.8931,-0.8925,-0.892,-0.8901,-0.8894,-0.8882,-0.8871,-0.8867,-0.8847,-0.8834,-0.8817,-0.8798,-0.879,-0.878,-0.8776,-0.8786,-0.8784,-0.8784,-0.8784,-0.8791,-0.8791,-0.8778,-0.8778,-0.8778,0,-0.8985,-0.8979,-0.8957,-0.895,-0.8941,-0.893,-0.8921,-0.8904,-0.8895,-0.8876,-0.8872,-0.8857,-0.8845,-0.8825,-0.8808,-0.8794,-0.8788,-0.8791,-0.8786,-0.879,-0.8787,-0.8787,-0.8786,-0.8792,-0.8793,-0.8793,-0.8793,0,-0.8995,-0.8987,-0.8975,-0.8961,-0.8951,-0.8939,-0.8926,-0.8921,-0.8901,-0.8892,-0.8878,-0.8869,-0.885,-0.8836,-0.8819,-0.8808,-0.8797,-0.8795,-0.8794,-0.8798,-0.8804,-0.88,-0.8789,-0.8795,-0.8795,-0.8794,-0.8794,-0.8794,-0.9004,-0.8998,-0.8982,-0.8969,-0.8958,-0.8946,-0.8938,-0.8925,-0.8914,-0.8897,-0.8888,-0.8874,-0.8858,-0.8835,-0.8825,-0.8814,-0.881,-0.8809,-0.8808,-0.8808,-0.8809,-0.8807,-0.8811,-0.8811,-0.8811,-0.8811,-0.8811,0,-0.9012,-0.9001,-0.899,-0.8972,-0.8962,-0.8953,-0.8939,-0.8931,-0.8919,-0.8905,-0.8893,-0.8878,-0.8864,-0.8847,-0.8832,-0.8827,-0.8821,-0.8823,-0.8823,-0.8821,-0.8814,-0.8816,-0.8828,-0.8828,-0.8828,-0.8828,-0.8828,-0.8828,-0.9015,-0.9005,-0.8996,-0.8979,-0.8968,-0.8955,-0.8947,-0.8936,-0.8925,-0.8908,-0.8897,-0.8886,-0.8871,-0.8855,-0.8842,-0.8837,-0.8832,-0.8835,-0.8829,-0.8823,-0.8821,-0.882,-0.8821,-0.8835,-0.8835,-0.8837,-0.8837,-0.8837]},{"header":{"parameterUnit":"m.s-1","parameterCategory":1,"la1":30.2991,"la2":30.254,"lo1":-89.0895,"lo2":-89.0444,"dy":0.0017,"dx":0.0017,"nx":28,"ny":28,"refTime":"2025-01-02T09:00:00:Z","depth":0,"parameterNumber":3,"parameterNumberName":"V-component_of_WINDS"},"data":[0,0,0,0,0,0,0,0,0,0,0,0,0,0,0,0,0,0,0,0,0,0,0,0,0,0,0,0,0,0,0,0,0,0,0,0,0,0,0,0,0,0,0,0,0,0,0,0,0,0,0,0,0,0,0,0,0,0,1.318,1.3184,0,1.3518,1.3522,1.3526,1.3638,1.3637,1.3636,1.3634,1.3977,1.3987,1.3998,0,0,0,0,0,0,0,0,0,0,0,0,0,1.263,1.2639,1.318,1.3184,1.3188,1.3518,1.3522,1.3527,1.3639,1.3637,1.3635,1.3634,1.3974,1.3986,1.3999,0,0,0,0,0,0,0,0,0,0,0,0,0,1.2908,1.2642,1.3179,1.3284,1.3297,1.3517,1.3523,1.3528,1.3639,1.3637,1.3635,1.3633,1.397,1.3985,1.4,1.414,0,0,1.4048,1.4055,0,0,0,0,0,0,0,0,1.2892,1.2928,1.3264,1.3277,1.3292,1.3534,1.3454,1.3733,1.364,1.3509,1.3634,1.3632,1.3831,1.3858,1.3926,1.4156,1.417,1.405,1.4059,1.4066,1.407,0,0,0,0,0,0,0,1.2873,1.2914,1.3314,1.3269,1.3286,1.3314,1.3351,1.3508,1.3678,1.352,1.3529,1.3568,1.3838,1.3911,1.3935,1.4176,1.4049,1.4063,1.4073,1.4079,1.4539,1.4541,0,0,0,0,0,0,1.2836,1.2897,1.3303,1.3324,1.3083,1.3325,1.3367,1.3458,1.3676,1.3708,1.3569,1.3572,1.3885,1.3917,1.3947,1.4127,1.4066,1.408,1.4089,1.4536,1.4539,1.4542,0,0,0,0,0,0,1.2824,1.2871,1.3289,1.3113,1.3169,1.3337,1.3439,1.3466,1.3539,1.3714,1.3744,1.3612,1.3885,1.3925,1.4092,1.414,1.4087,1.4102,1.4533,1.4537,1.4541,1.4485,0,0,0,0,0,0,1.2808,1.2866,1.2921,1.3114,1.3178,1.3428,1.3442,1.3474,1.3566,1.3573,1.3762,1.3791,1.3886,1.4068,1.4107,1.4161,1.4114,1.4529,1.4535,1.454,1.4483,1.4487,1.449,0,0,0,0,0,1.2787,1.2891,1.2923,1.2972,1.325,1.3431,1.3468,1.3575,1.3569,1.3626,1.3739,1.3785,1.4128,1.4084,1.4129,1.4188,1.4526,1.4533,1.4539,1.4482,1.4486,1.449,0,0,0,0,0,0,1.2698,1.2918,1.2956,1.3125,1.3259,1.345,1.3524,1.3576,1.3713,1.3714,1.3841,1.3882,1.4039,1.4131,1.4077,1.4336,1.433,1.4345,1.4271,1.4276,1.4279,1.4254,1.4127,0,0,0,0,0,1.2698,1.2827,1.3012,1.3143,1.3209,1.3355,1.3437,1.3509,1.3652,1.3709,1.3834,1.397,1.4109,1.4197,1.4335,1.4497,1.454,1.456,1.4563,1.4565,1.4577,1.4671,1.4682,1.4563,1.4563,1.4563,0,0,1.2699,1.2835,1.2909,1.3129,1.3241,1.3372,1.3401,1.3538,1.3637,1.3729,1.3895,1.3991,1.4152,1.4317,1.4396,1.4398,1.462,1.4573,1.4573,1.4585,1.4679,1.469,1.47,1.4567,1.4567,1.4566,0,0,1.2769,1.2884,1.3007,1.3119,1.3289,1.3386,1.3415,1.3599,1.3667,1.3835,1.3908,1.4027,1.4262,1.4375,1.4462,1.4576,1.4624,1.4616,1.4633,1.4724,1.4733,1.4742,1.4784,1.4797,1.4628,1.4628,1.4628,0,1.2748,1.2949,1.3063,1.3198,1.3292,1.3384,1.351,1.3612,1.3817,1.388,1.388,1.4179,1.4294,1.4487,1.4515,1.4583,1.462,1.4596,1.4723,1.4733,1.4743,1.4784,1.4799,1.4626,1.4626,1.4626,1.4626,0,1.2917,1.3055,1.3134,1.3331,1.3435,1.3563,1.3697,1.3788,1.3851,1.3948,1.4118,1.4259,1.4427,1.4478,1.454,1.4682,1.4678,1.4698,1.4695,1.475,1.4791,1.4808,1.4623,1.4624,1.4624,1.4625,0,0,1.2939,1.3199,1.3226,1.3318,1.3512,1.3621,1.3754,1.392,1.3996,1.4134,1.425,1.4448,1.4469,1.4569,1.4644,1.4723,1.4805,1.4735,1.474,1.4744,1.4971,1.4955,1.4971,1.4838,1.4842,1.4845,1.4958,0,1.3034,1.3277,1.3384,1.3579,1.3708,1.3798,1.3914,1.4045,1.4139,1.4263,1.4366,1.4506,1.4522,1.4583,1.4665,1.4778,1.4853,1.4771,1.4947,1.4952,1.4905,1.4992,1.4976,1.5076,1.4974,1.4977,1.4979,0,1.3178,1.3319,1.3526,1.3707,1.3765,1.3868,1.4029,1.4146,1.4297,1.436,1.4472,1.4544,1.4687,1.4674,1.4873,1.4815,1.4894,1.496,1.4966,1.4987,1.4969,1.5016,1.511,1.5125,1.5005,1.5003,1.5001,0,1.3175,1.3416,1.3572,1.3647,1.3861,1.3931,1.4024,1.4173,1.4267,1.4407,1.4469,1.4624,1.4709,1.4827,1.4939,1.4919,1.5128,1.5123,1.5184,1.5181,1.5225,1.5221,1.5333,1.5273,1.5273,1.5273,1.5272,0,1.3271,1.3394,1.3574,1.3669,1.3811,1.3933,1.4069,1.4168,1.43,1.4417,1.4503,1.461,1.4751,1.4877,1.4965,1.5117,1.5154,1.5209,1.5231,1.5203,1.5195,1.5256,1.5252,1.5277,1.5276,1.5275,1.5274,0,1.3291,1.3416,1.3592,1.3781,1.3831,1.3927,1.4089,1.4185,1.4284,1.443,1.4472,1.4626,1.4778,1.4902,1.51,1.516,1.5319,1.5344,1.5269,1.5281,1.5335,1.5328,1.5491,1.5519,1.5438,1.5439,1.5439,0,1.3344,1.3442,1.3642,1.3727,1.3818,1.3954,1.405,1.4174,1.427,1.4451,1.4525,1.4684,1.4818,1.5056,1.5186,1.5338,1.5368,1.5414,1.5391,1.536,1.537,1.5363,1.5374,1.5416,1.5417,1.5417,1.5417,0,1.3426,1.3484,1.362,1.3778,1.389,1.4021,1.4153,1.4217,1.4365,1.4469,1.4626,1.473,1.4934,1.509,1.5257,1.5352,1.5409,1.5423,1.5446,1.5417,1.537,1.5398,1.5276,1.5419,1.5419,1.5419,1.5419,1.5419,1.3466,1.3558,1.3713,1.3862,1.3975,1.4096,1.4197,1.4309,1.4442,1.4619,1.4684,1.4845,1.4995,1.5225,1.5321,1.5449,1.5454,1.5486,1.5495,1.5501,1.5498,1.5349,1.5479,1.5479,1.5479,1.548,1.548,0,1.3554,1.3658,1.3794,1.3977,1.4094,1.4139,1.4288,1.4383,1.4525,1.466,1.4791,1.4972,1.5124,1.5266,1.5426,1.5501,1.5531,1.5539,1.5535,1.5556,1.5483,1.5448,1.5511,1.5511,1.5511,1.5511,1.5511,1.5511,1.3613,1.3771,1.3846,1.4061,1.4165,1.4325,1.4406,1.4519,1.4628,1.4827,1.4955,1.5047,1.5186,1.5356,1.5498,1.5536,1.5591,1.5592,1.5636,1.5565,1.5561,1.5556,1.5524,1.5602,1.5602,1.5699,1.57,1.57]}]]